Weather History for EGPD - February, 2013

Change the Weather History Date:

Thursday, February 21, 2013

  Actual Average Record
Temperature  
Mean Temperature 36 °F -  
Max Temperature 38 °F 45 °F 59 °F (2008)
Min Temperature 33 °F 33 °F 30 °F (2006)
Degree Days  
Heating Degree Days 30    
Moisture  
Dew Point 29 °F    
Average Humidity 73    
Maximum Humidity 93    
Minimum Humidity 53    
Precipitation  
Precipitation 0.00 in 0.07 in - ()
Sea Level Pressure  
Sea Level Pressure 30.33 in    
Wind  
Wind Speed 11 mph ()    
Max Wind Speed 16 mph    
Max Gust Speed -    
Visibility 7.3 miles    
Events Rain    
Averages and records for this station are not official NWS values.
T = Trace of Precipitation, MM = Missing Value Source: Averaged Metar Reports

Daily Weather History Graph

Daily Weather History Graph

Search for Another Location

Airport or City:

Trip Planner

Search our weather history database for the weather conditions in past years. The results will help you decide how hot, cold, wet, or windy it might be!

Date:

Astronomy

Feb. 21, 2013 Rise Set
Actual Time 7:22 AM GMT 5:23 PM GMT
Civil Twilight 6:43 AM GMT 6:02 PM GMT
Nautical Twilight 5:58 AM GMT 6:47 PM GMT
Astronomical Twilight 5:14 AM GMT 7:31 PM GMT
Moon 12:50 PM GMT (2/21) 4:52 AM GMT (2/21)
Length of Visible Light 11h 19m
Length of Day
10h 00m
Waxing Gibbous, 82% of the Moon is Illuminated
Feb 21
Waxing Gibbous
Feb 25
Full
Mar 4
Last Quarter
Mar 11
New
Mar 19
First Quarter

Hourly Weather History & Observations

Time (GMT) Temp. Windchill Dew Point Humidity Pressure Visibility Wind Dir Wind Speed Gust Speed Precip Events Conditions
12:20 AM 37.4 °F 28.2 °F 28.4 °F 70% 30.36 in 6.2 mi South 16.1 mph - N/A   Overcast
12:50 AM 37.4 °F 28.9 °F 30.2 °F 75% 30.36 in 6.2 mi South 13.8 mph - N/A   Mostly Cloudy
1:20 AM 35.6 °F 27.1 °F 32.0 °F 87% 30.36 in 5.6 mi SSE 12.7 mph - N/A   Drizzle
1:50 AM 35.6 °F 26.6 °F 32.0 °F 87% 30.36 in 6.2 mi SSE 13.8 mph - N/A   Mostly Cloudy
2:20 AM 35.6 °F 26.2 °F 32.0 °F 87% 30.33 in 6.2 mi South 15.0 mph - N/A   Mostly Cloudy
2:50 AM 33.8 °F 23.5 °F 32.0 °F 93% 30.33 in 5.0 mi South 16.1 mph - N/A Rain Light Rain
3:20 AM 35.6 °F 27.1 °F 32.0 °F 87% 30.33 in 6.2 mi South 12.7 mph - N/A Rain Light Rain
3:50 AM 35.6 °F 25.9 °F 30.2 °F 81% 30.33 in 6.2 mi SSE 16.1 mph - N/A   Mostly Cloudy
4:20 AM 35.6 °F 27.5 °F 30.2 °F 81% 30.33 in 6.2 mi SSE 11.5 mph - N/A Rain Light Rain
4:50 AM 35.6 °F 27.1 °F 30.2 °F 81% 30.33 in 6.2 mi South 12.7 mph - N/A   Mostly Cloudy
5:20 AM 35.6 °F 29.2 °F 30.2 °F 81% 30.33 in 6.2 mi South 8.1 mph - N/A   Mostly Cloudy
5:50 AM 36 °F - 28 °F 64% 30.36 in 16 mi South 12.7 mph - - Rain Rain
5:50 AM 35.6 °F 28.0 °F 28.4 °F 75% 30.33 in 6.2 mi South 10.4 mph - N/A   Mostly Cloudy
6:20 AM 33.8 °F 27.7 °F 32.0 °F 93% 30.36 in 6.2 mi South 6.9 mph - N/A   Mostly Cloudy
6:50 AM 35.6 °F 27.1 °F 28.4 °F 75% 30.36 in 6.2 mi South 12.7 mph - N/A   Mostly Cloudy
7:20 AM 35.6 °F 28.0 °F 28.4 °F 75% 30.33 in 6.2 mi South 10.4 mph - N/A   Mostly Cloudy
7:50 AM 35.6 °F 27.5 °F 28.4 °F 75% 30.36 in 6.2 mi South 11.5 mph - N/A   Mostly Cloudy
8:20 AM 35.6 °F 28.6 °F 28.4 °F 75% 30.36 in 6.2 mi South 9.2 mph - N/A   Mostly Cloudy
8:50 AM 36 °F - 27 °F 58% 30.37 in 19 mi South 13.8 mph - -   Overcast
8:50 AM 35.6 °F 28.0 °F 28.4 °F 75% 30.36 in 6.2 mi South 10.4 mph - N/A   Mostly Cloudy
9:20 AM 35.6 °F 29.2 °F 28.4 °F 75% 30.36 in 6.2 mi South 8.1 mph - N/A   Mostly Cloudy
9:50 AM 37.4 °F 30.8 °F 28.4 °F 70% 30.36 in 6.2 mi South 9.2 mph - N/A   Mostly Cloudy
10:20 AM 37.4 °F 31.4 °F 30.2 °F 75% 30.36 in 6.2 mi South 8.1 mph - N/A   Mostly Cloudy
10:50 AM 37.4 °F 30.3 °F 30.2 °F 75% 30.33 in 6.2 mi South 10.4 mph - N/A   Mostly Cloudy
11:20 AM 37.4 °F 30.3 °F 30.2 °F 75% 30.33 in 6.2 mi South 10.4 mph - N/A   Mostly Cloudy
11:50 AM 38 °F - 27 °F 53% 30.36 in 19 mi SSE 13.8 mph - -   Scattered Clouds
11:50 AM 37.4 °F 28.9 °F 28.4 °F 70% 30.33 in 6.2 mi SSE 13.8 mph - N/A   Mostly Cloudy
12:20 PM 39.2 °F 31.6 °F 28.4 °F 65% 30.33 in 6.2 mi South 12.7 mph - N/A   Mostly Cloudy
12:50 PM 37.4 °F 28.9 °F 28.4 °F 70% 30.33 in 6.2 mi South 13.8 mph - N/A   Mostly Cloudy
1:20 PM 37.4 °F 29.3 °F 28.4 °F 70% 30.33 in 6.2 mi South 12.7 mph - N/A   Mostly Cloudy
1:50 PM 37.4 °F 29.8 °F 28.4 °F 70% 30.33 in 6.2 mi South 11.5 mph - N/A   Mostly Cloudy
2:20 PM 37.4 °F 29.8 °F 28.4 °F 70% 30.33 in 6.2 mi South 11.5 mph - N/A   Mostly Cloudy
2:50 PM 37 °F - 28 °F 59% 30.33 in 22 mi South 12.7 mph - -   Overcast
2:50 PM 37.4 °F 29.8 °F 28.4 °F 70% 30.30 in 6.2 mi South 11.5 mph - N/A   Mostly Cloudy
3:20 PM 37.4 °F 30.8 °F 28.4 °F 70% 30.30 in 6.2 mi South 9.2 mph - N/A   Mostly Cloudy
3:50 PM 37.4 °F 30.3 °F 28.4 °F 70% 30.30 in 6.2 mi South 10.4 mph - N/A   Mostly Cloudy
4:20 PM 37.4 °F 30.8 °F 28.4 °F 70% 30.30 in 6.2 mi South 9.2 mph - N/A   Mostly Cloudy
4:50 PM 37.4 °F 32.1 °F 28.4 °F 70% 30.30 in 6.2 mi South 6.9 mph - N/A   Mostly Cloudy
5:20 PM 37.4 °F 31.4 °F 28.4 °F 70% 30.30 in 6.2 mi South 8.1 mph - N/A   Mostly Cloudy
5:50 PM 37 °F - 28 °F 61% 30.32 in 19 mi South 11.5 mph - -   Overcast
5:50 PM 37.4 °F 30.3 °F 28.4 °F 70% 30.30 in 6.2 mi South 10.4 mph - N/A   Mostly Cloudy
6:20 PM 37.4 °F 31.4 °F 28.4 °F 70% 30.30 in 6.2 mi South 8.1 mph - N/A   Mostly Cloudy
6:50 PM 35.6 °F 30.7 °F 30.2 °F 81% 30.30 in 6.2 mi South 5.8 mph - N/A   Mostly Cloudy
7:20 PM 35.6 °F 29.9 °F 28.4 °F 75% 30.30 in 6.2 mi South 6.9 mph - N/A   Mostly Cloudy
7:50 PM 35.6 °F 29.9 °F 28.4 °F 75% 30.30 in 6.2 mi South 6.9 mph - N/A   Mostly Cloudy
8:20 PM 35.6 °F 29.9 °F 28.4 °F 75% 30.30 in 6.2 mi South 6.9 mph - N/A   Mostly Cloudy
8:50 PM 36 °F - 26 °F 57% 30.32 in 22 mi South 9.2 mph - -   Overcast
8:50 PM 35.6 °F 30.7 °F 26.6 °F 70% 30.30 in 6.2 mi South 5.8 mph - N/A   Mostly Cloudy
9:20 PM 35.6 °F 29.9 °F 28.4 °F 75% 30.30 in 6.2 mi South 6.9 mph - N/A   Mostly Cloudy
9:50 PM 35.6 °F 29.9 °F 28.4 °F 75% 30.30 in 6.2 mi South 6.9 mph - N/A   Mostly Cloudy
10:20 PM 35.6 °F 29.9 °F 28.4 °F 75% 30.30 in 6.2 mi South 6.9 mph - N/A   Mostly Cloudy
10:50 PM 35.6 °F 30.7 °F 26.6 °F 70% 30.30 in 6.2 mi South 5.8 mph - N/A   Mostly Cloudy
11:20 PM 35.6 °F 31.7 °F 28.4 °F 75% 30.30 in 6.2 mi South 4.6 mph - N/A   Mostly Cloudy
11:50 PM 36 °F - 27 °F 59% 30.32 in 19 mi South 9.2 mph - -   Overcast
11:50 PM 35.6 °F 29.2 °F 28.4 °F 75% 30.30 in 6.2 mi South 8.1 mph - N/A   Mostly Cloudy